Regional Weather Roundup
Issued by NWS

Home | Current Version | Previous Version | Text Only | Print | Product List | Glossary Off
Versions: 1 2 3 4 5 6 7 8 9 10 11 12 13 14 15 16 17 18 19 20 21 22 23 24 25 26 27

000
ASUS45 KBOU 170710
RWRCO

WEATHER ROUNDUP FOR COLORADO
NATIONAL WEATHER SERVICE DENVER/BOULDER CO
1200 AM MST FRI NOV 17 2017

NOTE: "FAIR" INDICATES FEW OR NO CLOUDS BELOW 12000 FEET WITH NO
SIGNIFICANT WEATHER AND/OR OBSTRUCTIONS TO VISIBILITY.

COZ001>005-013-030-031-170800-
...NORTHWEST COLORADO...

CITY           SKY/WX    TMP DP  RH WIND       PRES   REMARKS
CRAIG          CLOUDY    54  26  34 SW18G31   29.78F
HAYDEN         CLOUDY    52  28  39 SW16      29.81F
MEEKER         CLOUDY    54  26  34 SW18G28   29.82F
RABBIT EARS PA CLOUDY    34  27  75 SW9G24    29.95S WCI  26
STEAMBOAT SPGS CLOUDY    48  28  45 CALM      29.83S
WALDEN         CLOUDY    43  25  49 SW16      29.86S
$$

COZ006>008-011-170800-
...WEST CENTRAL VALLEYS...

CITY           SKY/WX    TMP DP  RH WIND       PRES   REMARKS
GRAND JUNCTION FAIR      57  26  30 SE13      29.83F
MONTROSE       FAIR      60  23  24 SW20G28   29.93S
EAGLE          FAIR      55  25  31 SW22G32   29.87F
RIFLE          MOCLDY    52  27  38 NE3       29.85S
DELTA          FAIR      59  25  27 CALM      29.91S
NUCLA          FAIR      59  21  23 S18G25    29.99F
$$

COZ017>023-064>068-170800-
...SOUTHWEST COLORADO...

CITY           SKY/WX    TMP DP  RH WIND       PRES   REMARKS
DURANGO        CLOUDY    45  25  45 CALM      30.08F
CORTEZ         FAIR      45  26  47 NE7       30.02F
PAGOSA SPRINGS CLOUDY    45  28  52 CALM      30.12F
TELLURIDE      FAIR      47  23  37 S14G25    30.11R
WOLF CREEK PAS LGT SNOW  28  28 100 S23G35    30.26F WCI  14
$$

COZ009-010-012-014-032>034-037-058>063-170800-
...CENTRAL COLORADO...

CITY           SKY/WX    TMP DP  RH WIND       PRES   REMARKS
ASPEN          CLOUDY    50  25  37 S12       29.94S
BUENA VISTA    CLOUDY    38  31  75 NW6       29.97F
COPPER MTN     MOCLDY    36  23  60 MISG      30.07S
BERTHOUD PASS  CLOUDY    28  18  64 W36G46    30.02F WCI  12
COTTONWOOD PAS CLOUDY    46  28  49 W3        30.03F
GUNNISON       FAIR      37  34  89 NE3       30.01F
KREMMLING      FAIR      55  25  30 SW18G32   29.87S
LEADVILLE      CLOUDY    40  19  43 S15G21    30.00F
MONARCH PASS   CLOUDY    30  25  80 SW40G49   30.20F WCI  13
SALIDA         FAIR      43  29  58 W3        30.05F
SUNLIGHT       CLOUDY    34  21  60 SW25G41   30.03F WCI  21
WILKERSON PASS FAIR      32  27  80 S12G23    30.07F WCI  23
$$

COZ069>075-170800-
...SAN LUIS VALLEY/SANGRE DE CRISTO MOUNTAINS...

CITY           SKY/WX    TMP DP  RH WIND       PRES   REMARKS
ALAMOSA        FAIR      43  28  55 SE8       30.04F
DEL NORTE      FAIR      51  24  35 SW29G45   30.04F
LA VETA PASS   FAIR      39  23  52 S18G37      N/A
SAGUACHE       FAIR      32  23  69 NW7       30.05F WCI  26
$$

COZ035-036-038>040-170800-
...NORTHERN COLORADO FRONT RANGE...

CITY           SKY/WX    TMP DP  RH WIND       PRES   REMARKS
DENVER INTL AP MOCLDY    55  29  36 SW15      29.72F
DMNS CITY PARK   N/A     60  26  27 S15G23    29.72F
AURORA         PTCLDY    56  29  35 SW21      29.73F
FRONT RANGE AP FAIR      58  30  34 SW15G24   29.73F
ERIE MUNI ARPT FAIR      52  26  35 SW3       29.76F
BOULDER MUN AP FAIR      59  28  31 W8        29.72F
CENTENNIAL     FAIR      59  29  31 W10G25    29.77F
BROOMFIELD     FAIR      52  27  37 W10       29.74F
FORT COLLINS   FAIR      61  30  31 SW15      29.69S
LONGMONT       FAIR      53  29  39 CALM      29.73F
$$

COZ041-046-047-076>085-087-088-170800-
...PIKES PEAK/PALMER DIVIDE AND SOUTHERN FOOTHILLS...

CITY           SKY/WX    TMP DP  RH WIND       PRES   REMARKS
COLO. SPRINGS  MOCLDY    56  29  35 S14       29.86R
A. F. ACADEMY  FAIR      59  22  24 W31G41    29.81F
SCHRIEVER AFB  FAIR      57  26  29 W30G36    29.80F
CHEYENNE MTN   FAIR      55  23  28 N21G41    29.77F
ELLICOTT         N/A    N/A N/A N/A W16G25    29.81S
FALCON         FAIR      55  24  29 W26G32    29.84F
FORT CARSON    FAIR      61  25  25 SW30G41   29.79R
LIMON          FAIR      48  30  49 NW6       29.77F
MONUMENT HILL  FAIR      50  30  46 SW25G32   29.84F
CANON CITY     FAIR      57  30  35 MISG      29.84F
WALSENBURG     FAIR      61  27  27 W33G46    29.86R
TRINIDAD       FAIR      60  23  24 W17G23    29.86F
$$

COZ042>045-048>051-090-091-170800-
...NORTHEAST COLORADO...

CITY           SKY/WX    TMP DP  RH WIND       PRES   REMARKS
GREELEY ARPT   FAIR      64  29  26 W25G32    29.68F
AKRON          FAIR      55  24  30 SW21G28   29.69F
BURLINGTON     FAIR      55  27  34 SW18      29.72F
WRAY           NOT AVBL
YUMA           FAIR      43  25  49 W3        29.66F
STERLING       FAIR      37  28  70 W3        29.66F
HOLYOKE        FAIR      41  32  70 SW7       29.66S
FORT MORGAN    FAIR      48  23  38 W5        29.69S
$$

COZ086-089-092>099-170800-
...SOUTHEAST COLORADO...

CITY           SKY/WX    TMP DP  RH WIND       PRES   REMARKS
PUEBLO         FAIR      51  30  44 CALM      29.78F
LA JUNTA       FAIR      59  30  33 SW9       29.79S
LAMAR          FAIR      48  27  44 S5        29.76S
SPRINGFIELD      N/A     51  30  44 SW8       29.83S
$$




USA.gov is the U.S. government's official web portal to all federal, state and local government web resources and services.